Probability
0 0 0 0 0 0 0 0 0 0 0 0 0 0 0 0 0 0 0 0 0 0 0 0 0 0 0 0 0 0 0 0 0 0 0 0 0 0
0 0 0 0 0 0 0 0 0 0 0 0 0 0 0 0 0 0 0 0 0 0 0 0 0 0 0 0 0 0 0 0 0 0 0 0 0 0
0 0 0 0 0 0 0 0 0 0 0 0 0 0 0 0 0 0 0 0 0 0 0 0 0 0 0 0 0 0 0 0 0 0 0 0 0 0
0 0 0 0 0 0 0 0 0 0 0 0 0 0 0 0 0 0 0 0 0 0 0 0 0 0 0 0 0 0 0 0 0 0 0 0 0 0
0 0 0 0 0 0 0 0 0 0 0 0 0 0 0 0 0 0 0 0 0 0 0 0 0 0 0 0 0 0 0 0 0 0 0 0 0 0
0 0 0 0 0 0 0 0 0 0 0 0 0 0 0 0 0 0 0 0 0 0 0 0 0 0 0 0 0 0 0 0 0 0 0 0 0 0
0 0 0 0 0 0 0 0 0 0 0 0 0 0 0 0 0 0 0 0 0 0 0 0 0 0 0 0 0 0 0 0 0 0 0 0 0 0
0 0 0 0 0 0 0 0 0 0 0 0 0 0 0 0 0 0 0 0 0 0 0 0 0 0 0 0 0 0 0 0 0 0 0 0 0 0
0 0 0 0 0 0 0 0 0 0 0 0 0 0 0 0 0 0 0 0 0 0 0 0 0 0 0 0 0 0 0 0 0 0 0 0 0 0
0 0 0 0 0 0 0 0 0 0 0 0 0 0 0 0 0 0 0 0 0 0 0 0 0 0 0 0 0 0 0 0 0 0 0 0 0 0
0 0 0 0 0 0 0 0 0 0 0 0 0 0 0 0 0 0 0 0 0 0 0 0 0 0 0 0 0 0 0 0 0 0 0 0 0 0
0 0 0 0 0 0 0 0 0 0 0 0 0 0 0 0 0 0 0 0 0 0 0 0 0 0 0 0 0 0 0 0 0 0 0 0 0 0
0 0 0 0 0 0 0 0 0 0 0 0 0 0 0 0 0 0 0 0 0 0 0 0 0 0 0 0 0 0 0 0 0 0 0 0 0 0
0 0 0 0 0 0 0 0 0 0 0 0 0 0 0 0 0 0 0 0 0 0 0 0 0 0 0 0 0 0 0 0 0 0 0 0 0 0
0 0 0 0 0 0 0 0 0 0 0 0 0 0 0 0 0 0 0 0 0 0 0 0 0 0 0 0 0 0 0 0 0 0 0 0 0 0
0 0 0 0 0 0 0 0 0 0 0 0 0 0 0 0 0 0 0 0 0 0 0 0 0 0 0 0 0 0 0 0 0 0 0 0 0 0
0 0 0 0 0 0 0 0 0 0 0 0 0 0 0 0 0 0 0 0 0 0 0 0 0 0 0 0 0 0 0 0 0 0 0 0 0 0
0 0 0 0 0 0 0 0 0 0 0 0 0 0 0 0 0 0 0 0 0 0 0 0 0 0 0 0 0 0 0 0 0 0 0 0 0 0
0 0 0 0 0 0 0 0 0 0 0 0 0 0 0 0 0 0 0 0 0 0 0 0 0 0 0 0 0 0 0 0 0 0 0 0 0 0
0 0 0 0 0 0 0 0 0 0 0 0 0 0 0 0 0 0 0 0 0 0 0 0 0 0 0 0 0 0 0 0 0 0 0 0 0 0
0 0 0 0 0 0 0 0 0 0 0 0 0 0 0 0 0 0 0 0 0 0 0 0 0 0 0 0 0 0 0 0 0 0 0 0 0 0
0 0 0 0 0 0 0 0 0 0 0 0 0 0 0 0 0 0 0 0 0 0 0 0 0 0 0 0 0 0 0 0 0 0 0 0 0 0
0 0 0 0 0 0 0 0 0 0 0 0 0 0 0 0 0 0 0 0 0 0 0 0 0 0 0 0 0 0 0 0 0 0 0 0 0 0
Wind_Speed
15 16 16 13 12 13 12 12 12 12 11 9 8 9 11 10 17 13 11 22 28 28 28 28 27 27 26 25 25 24 24 23 22 22 23 23 23 23
12 15 16 13 12 12 12 12 13 14 14 5 8 7 10 11 17 13 12 24 28 28 28 27 27 27 26 26 25 25 25 24 24 24 24 24 24 24
14 15 18 15 13 12 12 12 13 13 19 13 6 7 11 11 11 10 10 12 12 25 27 27 27 27 27 26 26 25 25 25 25 25 25 25 25 24
15 15 17 13 16 14 12 15 14 14 16 20 8 7 11 10 10 9 9 10 9 20 26 27 27 26 26 26 26 25 26 26 25 25 25 25 25 25
14 14 15 14 16 14 14 15 13 13 14 16 13 7 8 7 8 8 9 8 9 15 22 26 27 27 27 26 26 26 26 25 25 25 25 25 25 26
14 14 14 14 16 15 14 16 14 14 13 14 13 8 7 6 8 8 8 8 10 10 15 18 21 26 26 26 26 26 25 25 26 26 25 25 25 26
13 13 14 18 21 18 14 12 13 13 13 13 13 10 9 7 9 8 11 8 9 9 8 9 9 9 10 19 24 25 26 26 25 25 25 25 25 25
13 12 13 17 21 26 28 26 21 16 15 14 13 13 12 12 9 10 10 9 9 7 9 10 8 9 8 8 18 24 25 25 25 25 25 25 25 26
11 11 10 11 17 13 18 25 24 28 26 17 15 15 12 11 12 12 11 10 11 6 8 9 8 10 8 11 23 25 26 25 25 25 25 25 26 27
10 11 11 11 12 13 11 13 13 14 17 16 14 13 12 10 12 13 12 11 7 6 8 7 7 9 9 8 20 25 25 26 26 26 26 26 26 27
10 10 11 11 18 21 14 12 12 11 17 22 21 19 22 22 17 10 10 9 9 8 9 7 5 6 7 8 13 23 25 25 25 26 26 26 26 26
8 9 16 16 19 21 12 10 12 10 9 10 13 16 15 18 24 15 12 10 6 7 8 8 6 5 5 6 8 8 12 19 24 25 25 25 26 16
8 7 8 17 20 20 16 10 13 11 8 9 8 7 6 7 9 10 10 10 9 6 7 9 7 7 6 4 5 7 8 8 9 13 20 24 26 20
8 7 8 17 19 18 13 13 17 13 6 6 7 7 7 7 7 7 8 10 9 7 8 9 7 7 7 6 5 4 6 7 8 9 8 16 21 25
8 14 16 18 16 12 14 16 12 6 5 6 7 7 6 6 5 5 6 7 7 7 8 9 8 7 8 8 6 5 5 6 8 9 9 10 10 10
9 12 16 15 12 11 10 8 5 4 5 6 6 5 5 5 6 6 6 6 6 6 7 9 10 10 9 9 8 7 7 6 6 8 9 9 9 10
8 6 5 4 5 4 4 4 4 4 5 5 5 5 6 6 6 6 6 6 6 6 6 6 7 7 9 8 8 9 8 8 8 8 9 11 11 11
11 6 5 5 5 5 5 4 4 5 5 5 5 6 6 7 6 5 5 6 7 7 7 6 5 4 4 7 13 11 10 9 8 9 10 12 13 11
8 5 5 5 5 4 4 4 4 4 4 5 5 5 6 6 6 6 7 7 7 7 6 6 7 7 9 10 8 15 11 9 9 10 11 12 14 12
5 5 5 5 4 4 4 4 4 4 4 4 5 5 6 6 6 7 7 8 8 7 7 6 8 10 11 10 7 7 15 12 10 11 11 11 12 17
6 5 5 5 4 4 4 4 4 4 5 5 5 6 6 6 7 7 7 12 10 8 9 9 10 14 7 5 7 7 8 16 16 12 11 11 12 12
6 6 5 4 4 4 4 4 4 5 5 5 5 6 6 6 7 8 8 8 8 8 8 6 5 6 6 9 11 10 9 9 15 23 23 20 13 12
6 5 5 4 4 4 3 4 5 4 5 5 5 5 5 6 6 7 7 7 7 7 7 6 5 6 8 9 10 9 11 11 9 10 12 20 27 30
Wind_Direction
235 233 234 234 229 229 227 223 235 258 259 214 207 213 216 217 227 226 221 235 240 241 240 240 240 241 242 243 245 247 249 251 253 254 256 258 260 262
235 235 235 235 232 228 227 226 225 238 258 228 205 196 208 218 227 225 220 232 239 243 243 243 241 241 241 242 243 245 247 249 251 253 254 256 258 260
242 238 239 234 233 230 227 226 227 227 248 254 203 198 202 215 226 220 216 225 234 241 244 243 243 242 241 241 243 245 247 249 250 252 254 256 258 260
246 242 243 238 235 232 228 228 228 225 235 252 235 203 210 211 216 219 219 219 220 237 243 245 244 243 242 242 243 246 248 250 251 252 254 256 258 260
250 245 245 239 239 235 230 231 230 229 230 243 246 213 213 208 211 221 222 221 220 233 241 245 245 245 244 244 244 245 246 248 250 251 254 256 258 260
253 249 246 240 240 237 235 233 230 229 229 236 243 225 214 194 202 213 224 219 227 227 234 237 241 245 246 245 245 246 247 248 249 251 252 254 256 258
256 251 247 247 245 243 239 234 227 229 229 233 238 232 218 199 208 204 222 219 224 218 223 231 235 237 238 246 246 247 246 247 248 251 253 254 255 257
258 254 252 257 258 258 254 246 232 225 226 228 231 230 224 214 206 207 214 218 227 203 213 226 220 228 228 227 241 245 247 247 249 250 252 253 255 257
257 257 258 255 259 252 256 258 253 241 230 223 230 229 221 211 206 210 210 211 219 194 195 224 215 226 224 231 238 241 245 247 250 251 252 253 256 258
259 257 258 258 254 253 245 246 247 248 243 234 227 225 221 212 206 211 213 219 224 204 190 218 211 222 224 224 239 242 244 246 248 250 253 255 257 259
262 256 257 255 259 262 255 247 247 245 250 246 238 229 225 222 211 207 208 212 222 215 199 210 211 216 221 224 233 240 244 245 248 251 253 255 257 259
268 259 264 264 264 264 254 243 246 243 234 242 245 242 231 227 224 211 204 208 206 209 193 196 198 189 225 223 221 228 240 246 249 251 253 255 257 258
274 268 260 269 270 268 261 244 246 243 227 225 228 228 222 219 222 214 203 205 205 205 186 183 193 193 209 221 218 217 219 228 241 251 254 255 255 255
277 272 268 275 273 271 267 257 254 250 225 214 218 220 219 218 214 210 206 208 211 206 186 181 192 195 206 224 233 219 215 220 228 239 240 252 256 257
279 280 282 283 282 273 269 267 260 242 217 214 216 219 214 209 200 201 206 209 214 212 199 192 197 200 207 223 231 227 228 229 228 235 237 239 241 247
287 284 287 287 283 274 269 270 253 230 221 218 213 211 199 196 201 200 203 201 212 222 212 205 204 204 215 225 230 236 226 227 220 227 236 242 241 241
288 278 272 273 267 258 252 251 241 236 237 219 209 206 202 203 205 199 198 197 208 215 214 208 210 215 221 221 233 237 236 238 236 234 238 247 244 241
298 282 272 264 263 258 251 245 234 230 230 223 212 208 206 204 204 198 198 203 214 218 215 203 192 206 233 242 228 237 237 239 238 235 238 249 253 245
296 281 274 267 264 257 248 242 239 233 225 219 216 212 207 204 204 204 204 209 218 221 217 201 197 206 231 247 236 221 228 237 239 239 239 244 254 254
289 284 279 271 263 258 250 246 240 232 226 223 219 213 209 207 208 208 207 211 217 220 221 211 208 212 225 241 246 236 233 236 240 246 247 249 254 259
290 282 274 268 263 258 254 247 240 235 231 224 221 216 211 209 213 213 213 223 222 221 225 224 223 228 234 240 252 249 240 241 243 247 250 254 259 257
285 280 275 268 263 259 257 252 244 239 232 230 227 219 214 212 216 216 216 219 221 223 230 234 219 219 220 235 249 257 256 249 252 254 253 250 251 251
287 281 275 269 264 261 257 252 247 245 237 230 227 221 214 216 218 218 218 220 222 226 231 236 229 222 229 237 249 256 259 259 258 258 256 255 256 258